Jiaotong-5

operational
NORAD ID: 54691 Int'l Des: 2022-167 Owner: HEAD Country: CN
LEOCIRCULARRETROGRADE

About Jiaotong-5

Description loading...

Live Position

Loading 3D Globe...

Upcoming Passes

Altitude History

Altitude vs Time

uPlot chart will show altitude changes over time

Two-Line Element Set

1 54691U 22167K 26063.17383845 .00164137 00000-0 13879-2 0 9991
2 54691 97.6162 244.9563 0003020 338.3001 21.8132 15.69226355180510
Epoch: Mar 4, 2026 • Age: 24 hours

Current Status

Altitude 371.0 km
Velocity 7.69 km/s
Sub-Earth Point -33.33°S, 89.26°E
Launch Date Dec 9, 2022
Age 3.2 years
Type other

Technical Details

Classification Payload
Mass 40.00 kg
Dry Mass 40.00 kg
Total Mass 40.00 kg
Length 0.50 m
Diameter 0.20 m
Span 2.00 m
Shape Box + 2 Pan
Manufacturer IMICAS
Bus Type WN100
Phase Status In Orbit
Owner/State HEAD/CN

Large Constellations

Loading constellations...